Location: Canazei
(46.4667°N, 11.7667°E)
Time: 06:30:12
(UTC+00:00)

SJ 16-02 - Pass Details

Date: 21 April 2021
Orbit: 605 x 617 km, 75.0° (Epoch: 05 May)

Event Time Altitude Azimuth Distance (km) Brightness Sun altitude
Exits shadow 00:25:14 36° 57° (ENE) 990 2.7 -29.4°
Drops below altitude 10° 00:28:10 10° 31° (NNE) 1,988 4.9 -29.2°
Sets 00:30:29 0° 26° (NNE) 2,899 6.0 -29.0°
